星链-34976 (STARLINK-34976)

导读 | 豆包AI

STARLINK-34976是美国SpaceX星链(Starlink)星座的成员卫星,于2025年8月14日发射入轨。星链星座旨在通过低轨卫星组网,为全球尤其是基础设施匮乏区域提供高速、低延迟的宽带互联网服务,支持远程通信、高清流媒体、在线交互等应用。该卫星延续了星链小型化设计理念,部署在近地轨道,助力星座扩容与服务覆盖优化,进一步推动SpaceX全球互联的战略布局,延续了星链星座持续组网扩张的节奏。

Basic Information
目录编号:
65209
目录名称:
STARLINK-34976
国际标识:
2025-176M
轨道中心:
EARTH
卫星名称:
星链-34976
卫星全名:
星链-34976 (STARLINK-34976)
卫星状态:
在轨 (已飞行212 天)
发射日期:
2025-08-14 UTC
国别 :
美国 (US)
星等 :
--
Orbit Information
数据来源 国际轨道数据 AOE轨道数据
星历时间 2026-03-13T15:56:13+0800
1天前
查看轨道信息
2026-03-10T09:00:00+0800
4天前
查看轨道信息
半长轴 6853.354km 6853.398km
偏心率 0.0001234 0.0001085
轨道倾角 53.158° 53.159°
近地点辐角 74.039° 68.686°
升交点赤经 136.116° 151.395°
平近点角 286.075° 163.010°
近地点 474.371km 474.517km
远地点 476.063km 476.005km
周期 94.105分钟 94.106分钟
每日圈数 15.301994 15.301847
Detailed Information
固有亮度:
5
最大亮度:
2.5
卫星平台:
Starlink V1.0
覆盖范围:
全球
运营商:
太空探索技术公司
运营商所在国:
美国
制造商(研发单位):
太空探索技术公司
制造商所在国:
美国
使用方式:
暂无
Satellite Introduction
Starlink 计划是 SpaceX 推出的全球卫星互联网项目,通过发射低轨道卫星,为全球尤其是偏远地区提供高速、低延迟的互联网服务。自 2019 年起,Starlink 已部署数千颗卫星,旨在缩小全球数字鸿沟,推动互联网普及。该项目还为军事、航空等行业提供通信支持,带来广泛经济效益。
2D Orbit Map
3D Orbit Map
Orbit Altitude Analysis Chart
Orbit Inclination Analysis Chart
Orbit Comprehensive Analysis Chart
View Comprehensive Chart